Leader, Saskatchewan

6:42 AM CST on March 24, 2017 (GMT -0600)
Leader

Weather History for CWJX - August, 2013

Change the Weather History Date:

Wednesday, August 14, 2013

  Actual Average Record
Temperature  
Mean Temperature 70 °F -  
Max Temperature 87 °F - - ()
Min Temperature 54 °F - - ()
Cooling Degree Days 6    
Growing Degree Days 20 (Base 50)    
Moisture  
Dew Point 54 °F    
Average Humidity 62    
Maximum Humidity 92    
Minimum Humidity 21    
Precipitation  
Precipitation 0.00 in - - ()
Sea Level Pressure  
Sea Level Pressure 29.97 in    
Wind  
Wind Speed 5 mph ()    
Max Wind Speed 10 mph    
Max Gust Speed -    
T = Trace of Precipitation, MM = Missing Value Source: Averaged Metar Reports

Daily Weather History Graph

Daily Weather History Graph

Search for Another Location

Airport or City:

Trip Planner

Search our weather history database for the weather conditions in past years. The results will help you decide how hot, cold, wet, or windy it might be!

Date:

Astronomy

Aug. 14, 2013 Rise Set
Actual Time 6:04 AM CST 8:39 PM CST
Civil Twilight 5:27 AM CST 9:16 PM CST
Nautical Twilight 4:39 AM CST 10:03 PM CST
Astronomical Twilight 3:43 AM CST 10:59 PM CST
Moon 3:04 PM CST (8/14) No Moon Set
Length of Visible Light 15h 49m
Length of Day
14h 35m
First Quarter, 53% of the Moon is Illuminated
Aug 14
First Quarter
Aug 20
Full
Aug 28
Last Quarter
Sep 5
New
Sep 12
First Quarter

Hourly Weather History & Observations

Time (CST) Temp. Heat Index Dew Point Humidity Pressure Visibility Wind Dir Wind Speed Gust Speed Precip Events Conditions
12:00 AM 61 °F - 56 °F 80% 30.02 in - East 5.8 mph - -  
12:00 AM 60.6 °F - 56.5 °F 86% 30.02 in - East 5.8 mph - N/A   Unknown
1:00 AM 59.7 °F - 55.8 °F 87% 30.01 in - East 5.8 mph - N/A   Unknown
2:00 AM 58.6 °F - 55.2 °F 88% 30.00 in - East 6.9 mph - N/A   Unknown
3:00 AM 57.4 °F - 54.1 °F 89% 30.00 in - ESE 3.5 mph - N/A   Unknown
4:00 AM 55.8 °F - 53.4 °F 92% 30.00 in - East 5.8 mph - N/A   Unknown
5:00 AM 55.0 °F - 52.9 °F 92% 30.00 in - East 6.9 mph - N/A   Unknown
6:00 AM 54 °F - 52 °F 92% 30.01 in - ESE 5.8 mph - -  
6:00 AM 54.5 °F - 52.3 °F 92% 30.01 in - ESE 5.8 mph - N/A   Unknown
7:00 AM 54.9 °F - 52.7 °F 92% 30.01 in - East 3.5 mph - N/A   Unknown
8:00 AM 61.2 °F - 57.0 °F 86% 30.01 in - SE 3.5 mph - N/A   Unknown
9:00 AM 65.7 °F - 58.1 °F 77% 30.01 in - Calm Calm - N/A   Unknown
10:00 AM 71.8 °F - 58.6 °F 63% 30.00 in - NE 2.3 mph - N/A   Unknown
11:00 AM 77.9 °F - 58.6 °F 51% 29.99 in - NNE 2.3 mph - N/A   Unknown
12:00 PM 82 °F - 55 °F 29% 29.97 in - ESE 3.5 mph - -  
12:00 PM 82.4 °F 81.7 °F 55.2 °F 39% 29.97 in - ESE 3.5 mph - N/A   Unknown
2:00 PM 84.6 °F - 48.4 °F 28% 29.95 in - WSW 3.5 mph - N/A   Unknown
3:00 PM 86.7 °F - 51.6 °F 30% 29.95 in - NNE 4.6 mph - N/A   Unknown
4:00 PM 83.8 °F - 49.8 °F 31% 29.95 in - ESE 4.6 mph - N/A   Unknown
5:00 PM 86.9 °F - 49.1 °F 27% 29.94 in - South 6.9 mph - N/A   Unknown
6:00 PM 85 °F - 51 °F 21% 29.93 in - South 10.4 mph - -  
6:00 PM 85.1 °F - 50.9 °F 31% 29.93 in - South 10.4 mph - N/A   Unknown
7:00 PM 84.0 °F - 50.0 °F 31% 29.91 in - South 8.1 mph - N/A   Unknown
8:00 PM 77.5 °F - 52.7 °F 42% 29.91 in - SSE 5.8 mph - N/A   Unknown
9:00 PM 70.3 °F - 54.5 °F 57% 29.91 in - SSE 6.9 mph - N/A   Unknown
10:00 PM 65.8 °F - 55.4 °F 69% 29.92 in - SE 6.9 mph - N/A   Unknown
11:00 PM 64.4 °F - 56.1 °F 74% 29.92 in - SSE 8.1 mph - N/A   Unknown